Meteo pe oră la Bolshie Mozhary

Astăzi, 10 Mai, Luni

Timp Temperatura Precipitaţii Vânt Presiune Umiditate
00:00 +3°C° 0 mm 6 m/s 752 mmHg 95%
01:00 +3°C° 0 mm 6 m/s 752 mmHg 93%
02:00 +3°C° 0 mm 6 m/s 752 mmHg 92%
03:00 +3°C° 0 mm 6 m/s 753 mmHg 90%
04:00 +3°C° 0 mm 6 m/s 753 mmHg 90%
05:00 +3°C° 0 mm 6 m/s 754 mmHg 89%
06:00 +3°C° 0 mm 6 m/s 754 mmHg 89%
07:00 +3°C° 0 mm 6 m/s 754 mmHg 87%
08:00 +4°C° 0 mm 6 m/s 755 mmHg 85%
09:00 +4°C° 0 mm 7 m/s 755 mmHg 83%
10:00 +4°C° 0 mm 7 m/s 755 mmHg 81%
11:00 +5°C° 0 mm 7 m/s 756 mmHg 79%
12:00 +6°C° 0 mm 7 m/s 756 mmHg 77%
13:00 +6°C° 0.1 mm 7 m/s 756 mmHg 79%
14:00 +6°C° 0.1 mm 7 m/s 756 mmHg 82%
15:00 +6°C° 0.1 mm 7 m/s 756 mmHg 84%
16:00 +6°C° 0 mm 7 m/s 756 mmHg 84%
17:00 +8°C° 0 mm 7 m/s 756 mmHg 85%
18:00 +8°C° 0 mm 7 m/s 756 mmHg 85%
19:00 +8°C° 0 mm 7 m/s 756 mmHg 86%
20:00 +6°C° 0 mm 7 m/s 756 mmHg 88%
21:00 +6°C° 0 mm 7 m/s 756 mmHg 89%
22:00 +6°C° 0 mm 7 m/s 756 mmHg 90%
23:00 +6°C° 0 mm 7 m/s 756 mmHg 91%

Mâine, 11 Mai, Marţi

Timp Temperatura Precipitaţii Vânt Presiune Umiditate
00:00 +6°C° 0 mm 7 m/s 756 mmHg 91%
01:00 +6°C° 0.1 mm 7 m/s 756 mmHg 91%
02:00 +6°C° 0.1 mm 7 m/s 756 mmHg 91%
03:00 +6°C° 0.1 mm 7 m/s 756 mmHg 92%
04:00 +8°C° 0 mm 7 m/s 756 mmHg 92%
05:00 +8°C° 0 mm 7 m/s 756 mmHg 92%
06:00 +8°C° 0 mm 6 m/s 756 mmHg 92%
07:00 +9°C° 0 mm 7 m/s 756 mmHg 89%
08:00 +11°C° 0 mm 7 m/s 756 mmHg 86%
09:00 +12°C° 0 mm 7 m/s 756 mmHg 82%
10:00 +15°C° 0 mm 7 m/s 756 mmHg 77%
11:00 +17°C° 0 mm 6 m/s 756 mmHg 71%
12:00 +20°C° 0 mm 6 m/s 756 mmHg 66%
13:00 +17°C° 0.6 mm 6 m/s 757 mmHg 72%
14:00 +16°C° 0.6 mm 5 m/s 757 mmHg 79%
15:00 +14°C° 0.6 mm 5 m/s 757 mmHg 86%
16:00 +14°C° 0.2 mm 4 m/s 758 mmHg 85%
17:00 +14°C° 0.2 mm 3 m/s 758 mmHg 84%
18:00 +14°C° 0.2 mm 2 m/s 759 mmHg 84%
19:00 +13°C° 0 mm 2 m/s 759 mmHg 84%
20:00 +12°C° 0 mm 2 m/s 759 mmHg 85%
21:00 +11°C° 0 mm 1 m/s 759 mmHg 85%
22:00 +11°C° 0 mm 1 m/s 760 mmHg 86%
23:00 +10°C° 0 mm 1 m/s 760 mmHg 86%

Poimâine, 12 Mai, Miercuri

Timp Temperatura Precipitaţii Vânt Presiune Umiditate
00:00 +10°C° 0 mm 1 m/s 760 mmHg 87%
01:00 +10°C° 0.1 mm 1 m/s 760 mmHg 87%
02:00 +10°C° 0.1 mm 1 m/s 760 mmHg 88%
03:00 +10°C° 0.1 mm 1 m/s 759 mmHg 89%
04:00 +9°C° 0.7 mm 2 m/s 759 mmHg 91%
05:00 +9°C° 0.7 mm 2 m/s 758 mmHg 93%
06:00 +9°C° 0.7 mm 2 m/s 758 mmHg 95%
07:00 +9°C° 0.8 mm 3 m/s 757 mmHg 95%
08:00 +10°C° 0.8 mm 3 m/s 757 mmHg 95%
09:00 +10°C° 0.8 mm 3 m/s 757 mmHg 95%
10:00 +11°C° 0.2 mm 4 m/s 756 mmHg 94%
11:00 +11°C° 0.2 mm 6 m/s 756 mmHg 93%
12:00 +14°C° 0.2 mm 7 m/s 755 mmHg 92%
13:00 +14°C° 0.2 mm 7 m/s 755 mmHg 90%
14:00 +14°C° 0.2 mm 7 m/s 755 mmHg 88%
15:00 +14°C° 0.2 mm 7 m/s 755 mmHg 87%
16:00 +14°C° 0.2 mm 6 m/s 755 mmHg 87%
17:00 +13°C° 0.2 mm 4 m/s 756 mmHg 88%
18:00 +13°C° 0.2 mm 3 m/s 756 mmHg 88%
19:00 +12°C° 0 mm 3 m/s 756 mmHg 89%
20:00 +12°C° 0 mm 2 m/s 756 mmHg 90%
21:00 +10°C° 0 mm 2 m/s 756 mmHg 91%
22:00 +10°C° 0 mm 2 m/s 756 mmHg 92%
23:00 +10°C° 0 mm 2 m/s 756 mmHg 94%

13 Mai, Joi

Timp Temperatura Precipitaţii Vânt Presiune Umiditate
00:00 +10°C° 0 mm 2 m/s 756 mmHg 95%
01:00 +10°C° 0 mm 2 m/s 756 mmHg 96%
02:00 +11°C° 0 mm 3 m/s 756 mmHg 96%
03:00 +11°C° 0 mm 3 m/s 755 mmHg 97%
04:00 +11°C° 0.8 mm 3 m/s 755 mmHg 97%
05:00 +12°C° 0.8 mm 3 m/s 755 mmHg 97%
06:00 +12°C° 0.8 mm 3 m/s 755 mmHg 97%
07:00 +13°C° 0.2 mm 3 m/s 754 mmHg 93%
08:00 +14°C° 0.2 mm 3 m/s 754 mmHg 89%
09:00 +15°C° 0.2 mm 4 m/s 754 mmHg 85%
10:00 +17°C° 0.1 mm 4 m/s 754 mmHg 82%
11:00 +18°C° 0.1 mm 3 m/s 754 mmHg 78%
12:00 +19°C° 0.1 mm 3 m/s 754 mmHg 74%
13:00 +19°C° 0 mm 3 m/s 754 mmHg 74%
14:00 +19°C° 0 mm 3 m/s 754 mmHg 75%
15:00 +19°C° 0 mm 3 m/s 754 mmHg 75%
16:00 +20°C° 0 mm 3 m/s 754 mmHg 76%
17:00 +20°C° 0 mm 3 m/s 754 mmHg 78%
18:00 +20°C° 0 mm 2 m/s 754 mmHg 79%
19:00 +19°C° 0 mm 2 m/s 754 mmHg 83%
20:00 +17°C° 0 mm 2 m/s 754 mmHg 87%
21:00 +16°C° 0 mm 2 m/s 754 mmHg 91%
22:00 +16°C° 0 mm 2 m/s 754 mmHg 92%
23:00 +15°C° 0 mm 2 m/s 754 mmHg 93%

14 Mai, Vineri

Timp Temperatura Precipitaţii Vânt Presiune Umiditate
00:00 +15°C° 0 mm 2 m/s 754 mmHg 93%
01:00 +15°C° 0 mm 2 m/s 754 mmHg 93%
02:00 +14°C° 0 mm 2 m/s 754 mmHg 93%
03:00 +14°C° 0 mm 2 m/s 754 mmHg 93%
04:00 +15°C° 0 mm 2 m/s 754 mmHg 93%
05:00 +15°C° 0 mm 2 m/s 754 mmHg 92%
06:00 +16°C° 0 mm 2 m/s 754 mmHg 91%
07:00 +17°C° 0 mm 2 m/s 754 mmHg 86%
08:00 +19°C° 0 mm 3 m/s 754 mmHg 80%
09:00 +21°C° 0 mm 3 m/s 754 mmHg 75%
10:00 +22°C° 0 mm 4 m/s 754 mmHg 70%
11:00 +23°C° 0 mm 4 m/s 754 mmHg 65%
12:00 +26°C° 0 mm 4 m/s 753 mmHg 60%
13:00 +26°C° 0 mm 5 m/s 753 mmHg 59%
14:00 +27°C° 0 mm 5 m/s 753 mmHg 58%
15:00 +27°C° 0 mm 5 m/s 753 mmHg 57%
16:00 +26°C° 0.1 mm 5 m/s 753 mmHg 61%
17:00 +26°C° 0.1 mm 5 m/s 752 mmHg 66%
18:00 +25°C° 0.1 mm 4 m/s 752 mmHg 70%
19:00 +22°C° 0 mm 4 m/s 752 mmHg 75%
20:00 +20°C° 0 mm 4 m/s 752 mmHg 80%
21:00 +19°C° 0 mm 3 m/s 752 mmHg 85%
22:00 +18°C° 0 mm 3 m/s 751 mmHg 85%
23:00 +18°C° 0 mm 3 m/s 751 mmHg 86%

15 Mai, Sâmbătă

Timp Temperatura Precipitaţii Vânt Presiune Umiditate
00:00 +17°C° 0 mm 3 m/s 751 mmHg 87%
01:00 +17°C° 0 mm 3 m/s 751 mmHg 88%
02:00 +17°C° 0 mm 3 m/s 751 mmHg 89%
03:00 +16°C° 0 mm 3 m/s 751 mmHg 90%
04:00 +16°C° 0 mm 3 m/s 751 mmHg 88%
05:00 +17°C° 0 mm 3 m/s 751 mmHg 87%
06:00 +17°C° 0 mm 3 m/s 751 mmHg 86%
07:00 +18°C° 0 mm 3 m/s 751 mmHg 81%
08:00 +20°C° 0 mm 4 m/s 751 mmHg 76%
09:00 +22°C° 0 mm 4 m/s 751 mmHg 71%
10:00 +23°C° 0 mm 5 m/s 750 mmHg 66%
11:00 +25°C° 0 mm 5 m/s 750 mmHg 61%
12:00 +26°C° 0 mm 6 m/s 750 mmHg 56%
13:00 +26°C° 0 mm 6 m/s 750 mmHg 56%
14:00 +27°C° 0 mm 6 m/s 750 mmHg 55%
15:00 +27°C° 0 mm 6 m/s 750 mmHg 55%
16:00 +26°C° 0 mm 5 m/s 750 mmHg 58%
17:00 +25°C° 0 mm 5 m/s 749 mmHg 62%
18:00 +23°C° 0 mm 5 m/s 749 mmHg 65%
19:00 +22°C° 0 mm 4 m/s 749 mmHg 70%
20:00 +20°C° 0 mm 4 m/s 749 mmHg 76%
21:00 +18°C° 0 mm 3 m/s 749 mmHg 81%
22:00 +18°C° 0 mm 3 m/s 748 mmHg 81%
23:00 +18°C° 0 mm 3 m/s 748 mmHg 82%
Arată mai mult

Formular de consimțământ

Meteoprog și furnizorii noștri de servicii pot stoca și accesa date personale, precum cookies, identificatori de dispozitiv sau alte tehnologii similare pe dispozitivul dumneavoastră și procesa astfel de date pentru a personaliza conținutul și reclamele, dar și pentru a oferi caracteristici de social media și pentru a analiza traficul.

  • Stocarea și/sau accesarea informațiilor pe dispozitivul dumneavoastră

    Cookies, identificatori de dispozitiv sau alte informații pot fi stocate sau accesate pe dispozitiv în scopurile indicate mai sus.

  • Reclame și conținut personalizat, evaluarea reclamelor și a conținutului, informații despre audiențe și dezvoltarea produselor

    Reclamele și conținutul pot fi personalizate pe baza unui profil. Pot fi adăugate date suplimentare pentru a personaliza mai bine reclamele și conținutul. Performanța reclamelor și conținutului poate fi măsurată. Pot fi obținute informații despre utilizatorii care au văzut reclamele și conținutul. Aceste date pot fi utilizate pentru a dezvolta sau îmbunătăți experiența utilizatorilor, sistemele și software-ul.

Dând clic pe ‘Sunt de acord’, permiteți utilizarea cookie-urilor menționate, a identificatorilor de dispozitiv, balizelor web sau altor tehnologii similare. Setările pot fi modificate din browser-ul dispozitivului dumneavoastră.

În anumite scopuri, interesele legitime pot prima asupra consimțământului. Puteți citi mai multe informații în acest sens în Politica privind Confidențialitatea Datelor și Cookie.